Home   Weather   Arlington   Past weeks

Flag for USA Past Weather in Arlington, Texas, USA — Yesterday and Last 2 Weeks

Now
76 °F

Passing clouds.


Feels Like: 76 °F
Forecast: 71 / 85 °F
Wind: 12 mph from Southeast

Location: Arlington Municipal Airport

Current Time: Sep 24, 2016 at 10:54:18 PM

Latest Report: Sep 24, 2016 at 9:53 PM


Visibility: 10 mi

Pressure: 29.92 "Hg

Humidity: 88%

Dew Point: 72 °F

Location of ArlingtonLocation

Past Weather in Arlington — Graph

°F

Arlington Temperature Yesterday

Maximum temperature yesterday: 94 °F (at 4:53 PM)
Minimum temperature yesterday: 75 °F (at 3:53 AM)
Average temperature yesterday: 84 °F

High & Low Weather Summary for the Past Weeks

 TemperatureHumidityPressure
High99 °F (Sep 19, 4:53 PM)94% (Sep 12, 2:53 AM)30.19 "Hg (Sep 12, 2:53 AM)
Low58 °F (Sep 11, 6:53 AM)31% (Sep 20, 3:53 PM)29.85 "Hg (Sep 16, 4:53 PM)
Average82 °F64%29.98 "Hg
* Reported Sep 9 9:53 PM — Sep 24 9:02 PM, Arlington, Weather by CustomWeather, © 2016

Note: Actual official high and low records may vary slightly from our data, if they occured in-between our weather recording intervals... More about our weather records

Advertising

Arlington Weather History for the Previous 24 Hours

Scroll right to see more
 ConditionsComfort  
Time TempWeatherWind HumidityBarometerVisibility
9:02 PM
Sat, Sep 24
77 °FLight rain. Partly cloudy.9 mph85%29.93 "Hg10 mi
8:53 PM76 °FThunderstorms. Passing clouds.12 mph88%29.90 "Hg10 mi
7:53 PM80 °FThundershowers. Passing clouds.22 mph79%29.89 "Hg7 mi
6:53 PM86 °FSunny.10 mph65%29.86 "Hg10 mi
5:53 PM86 °FSunny.9 mph67%29.86 "Hg10 mi
4:53 PM85 °FSunny.8 mph68%29.88 "Hg10 mi
3:53 PM79 °FPassing clouds.9 mph84%29.90 "Hg10 mi
2:53 PM86 °FThundershowers. Passing clouds.17 mph63%29.92 "Hg10 mi
1:53 PM85 °FPassing clouds.12 mph70%29.96 "Hg10 mi
12:53 PM76 °FStrong thunderstorms. Fog.13 mph91%29.98 "Hg2 mi
11:53 AM85 °FMostly cloudy.8 mph65%29.98 "Hg10 mi
10:53 AM85 °FBroken clouds.14 mph68%30.00 "Hg10 mi
9:53 AM81 °FMore clouds than sun.9 mph77%30.00 "Hg10 mi
8:53 AM80 °FPartly sunny.8 mph79%29.99 "Hg10 mi
7:53 AM77 °FMostly cloudy.9 mph88%29.98 "Hg10 mi
6:53 AM77 °FMostly cloudy.12 mph88%29.96 "Hg10 mi
5:53 AM77 °FOvercast.9 mph88%29.95 "Hg10 mi
4:53 AM76 °FPassing clouds.8 mph88%29.94 "Hg10 mi
3:53 AM77 °FClear.10 mph85%29.93 "Hg10 mi
2:53 AM78 °FClear.10 mph82%29.95 "Hg10 mi
1:53 AM79 °FClear.10 mph77%29.96 "Hg10 mi
12:53 AM80 °FClear.12 mph74%29.94 "Hg10 mi
11:53 PM
Fri, Sep 23
81 °FClear.13 mph72%29.94 "Hg10 mi
10:53 PM83 °FClear.12 mph68%29.93 "Hg10 mi
Weather by CustomWeather, © 2016

See weather overviewHow to use our weather pages